Weather History for Pompano Beach, FL

Change the Weather History Date:

Tuesday, July 22, 2014

  Actual Average Record
Temperature  
Mean Temperature 84 °F -  
Max Temperature 90 °F 91 °F 95 °F (1976)
Min Temperature 79 °F 74 °F 64 °F (1950)
Cooling Degree Days 20    
Growing Degree Days 34 (Base 50)    
Moisture  
Dew Point 75 °F    
Average Humidity 77    
Maximum Humidity 90    
Minimum Humidity 63    
Precipitation  
Precipitation 0.03 in - - ()
Sea Level Pressure  
Sea Level Pressure 30.05 in    
Wind  
Wind Speed 4 mph (SSE)    
Max Wind Speed 13 mph    
Max Gust Speed -    
Visibility 9 miles    
Events Rain , Thunderstorm    
Averages and records for this station are not official NWS values.
T = Trace of Precipitation, MM = Missing Value Source: NWS Daily Summary

Daily Weather History Graph

Daily Weather History Graph

Search for Another Location

Airport:

Trip Planner

Search our weather history database for the weather conditions in past years. The results will help you decide how hot, cold, wet, or windy it might be!

Date:

Astronomy

Jul. 22, 2014 Rise Set
Actual Time 6:40 AM EDT 8:12 PM EDT
Civil Twilight 6:15 AM EDT 8:37 PM EDT
Nautical Twilight 5:45 AM EDT 9:08 PM EDT
Astronomical Twilight 5:13 AM EDT 9:39 PM EDT
Moon 3:09 AM EDT 4:51 PM EDT
Length of Visible Light 14h 22m
Length of Day
13h 31m
Waning Crescent, 16% of the Moon is Illuminated
Jul 22
Waning Crescent
Jul 26
New
Aug 3
First Quarter
Aug 10
Full
Aug 17
Last Quarter

Hourly Weather History & Observations

Time (EDT) Temp. Heat Index Dew Point Humidity Pressure Visibility Wind Dir Wind Speed Gust Speed Precip Events Conditions
12:53 AM 79.0 °F - 73.9 °F 84% 30.05 in 10.0 mi Calm Calm - N/A   Unknown
1:53 AM 80.1 °F 84.5 °F 73.9 °F 81% 30.04 in 10.0 mi Calm Calm - N/A   Unknown
2:53 AM 79.0 °F - 73.9 °F 84% 30.02 in 10.0 mi Calm Calm - N/A   Unknown
3:53 AM 82.0 °F 88.6 °F 75.0 °F 79% 30.00 in 10.0 mi SE 4.6 mph - N/A   Unknown
4:53 AM 81.0 °F 86.7 °F 75.0 °F 82% 30.00 in 10.0 mi WSW 4.6 mph - N/A   Unknown
5:53 AM 79.0 °F - 75.0 °F 88% 30.01 in 10.0 mi WNW 4.6 mph - N/A   Unknown
6:53 AM 79.0 °F - 75.0 °F 88% 30.03 in 10.0 mi Calm Calm - N/A   Unknown
7:24 AM 79.0 °F - 75.9 °F 90% 30.04 in 2.5 mi ESE 6.9 mph - 0.02 in Rain Light Rain
7:32 AM 79.0 °F - 75.0 °F 88% 30.04 in 5.0 mi ESE 8.1 mph - 0.02 in Rain Light Rain
7:53 AM 79.0 °F - 75.0 °F 88% 30.04 in 10.0 mi East 4.6 mph - 0.03 in Rain Light Rain
8:53 AM 84.0 °F 92.6 °F 75.9 °F 76% 30.05 in 10.0 mi Calm Calm - 0.00 in   Scattered Clouds
10:53 AM 87.1 °F 98.8 °F 77.0 °F 72% 30.06 in 10.0 mi SE 12.7 mph - N/A   Scattered Clouds
11:45 AM 84.9 °F 94.1 °F 75.9 °F 74% 30.07 in 10.0 mi South 10.4 mph - N/A Thunderstorm Mostly Cloudy
11:53 AM 84.9 °F 93.3 °F 75.0 °F 72% 30.07 in 10.0 mi South 9.2 mph - N/A Thunderstorm Mostly Cloudy
12:19 PM 84.9 °F 93.3 °F 75.0 °F 72% 30.06 in 10.0 mi SSE 6.9 mph - N/A   Unknown
1:53 PM 87.1 °F 97.3 °F 75.9 °F 69% 30.06 in 10.0 mi South 9.2 mph - N/A   Unknown
2:53 PM 89.1 °F 99.1 °F 75.0 °F 63% 30.05 in 10.0 mi SSE 9.2 mph - N/A   Unknown
3:53 PM 90.0 °F 101.3 °F 75.9 °F 63% 30.03 in 10.0 mi SE 10.4 mph - N/A Thunderstorm Unknown
4:53 PM 87.1 °F 96.3 °F 75.0 °F 67% 30.05 in 10.0 mi Variable 4.6 mph - N/A Thunderstorm Unknown
5:00 PM 86.0 °F 93.8 °F 73.9 °F 67% 30.04 in 10.0 mi WNW 5.8 mph - N/A Thunderstorm Thunderstorm
5:53 PM - - - N/A% 30.05 in - North - - N/A Thunderstorm Thunderstorm
6:53 PM - - - N/A% 30.05 in - North - - N/A   Unknown
7:53 PM - - - N/A% 30.06 in - North - - N/A   Unknown
8:53 PM - - - N/A% 30.07 in - North - - N/A   Unknown
10:53 PM - - - N/A% 30.09 in - North - - N/A   Unknown
11:53 PM - - - N/A% 30.09 in - North - - N/A   Unknown